Location: Newark
(12.4436°N, 0.6167°W)
Time: 06:21:10
(UTC+00:00)

Vanguard 1 - Pass Details

Date: 10 December 2019
Orbit: 651 x 3832 km, 34.2° (Epoch: 23 January)

Event Time Altitude Azimuth Distance (km) Brightness Sun altitude
Rises 02:43:23 0° 242° (WSW) 6,763 - -48.7°
Reaches altitude 10° 02:47:20 10° 243° (WSW) 6,057 - -47.8°
Exits shadow 03:05:47 70° 286° (WNW) 3,949 12.6 -43.6°
Maximum altitude 03:08:42 75° 327° (NNW) 3,914 12.7 -42.9°
Drops below altitude 10° 03:31:10 10° 52° (NE) 6,272 14.4 -37.7°
Sets 03:35:24 0° 55° (NE) 6,996 14.8 -36.8°
